Regional Weather Roundup
Issued by NWS

Home | Current Version | Previous Version | Graphics & Text | Print | Product List | Glossary On
Versions: 1 2 3 4 5 6 7 8 9 10 11 12 13 14 15 16 17 18 19 20 21 22 23 24 25 26 27 28 29 30 31 32 33 34 35 36 37 38 39 40 41 42 43 44 45 46 47 48 49 50
000
ASUS45 KPSR 172110
RWRAZ

ARIZONA REGIONAL HOURLY WEATHER ROUNDUP
NATIONAL WEATHER SERVICE PHOENIX AZ
200 PM MST WED SEP 17 2014

NOTE: FAIR INDICATES FEW OR NO CLOUDS BELOW 12,000 FEET WITH NO
SIGNIFICANT WEATHER AND/OR OBSTRUCTIONS TO VISIBILITY.

AZZ001>003-036-172200-
NORTHWEST ARIZONA

CITY           SKY/WX    TMP DP  RH WIND       PRES   REMARKS
BULLHEAD CITY    N/A     97  63  32 SW10      29.75F
KINGMAN        PTSUNNY   82  60  47 SE9       29.95F
$$

AZZ004>008-015-016-018-172200-
NORTH CENTRAL ARIZONA

CITY           SKY/WX    TMP DP  RH WIND       PRES   REMARKS
GRAND CANYON   MOSUNNY   73  49  42 E17G25    30.17F
PRESCOTT       PTSUNNY   78  54  43 E8        30.04F
FLAGSTAFF      CLOUDY    62  56  80 NE9       30.20F
PAYSON         CLOUDY    68  59  73 VRB3      30.08F
PAGE           MOSUNNY   85  53  33 N7        29.99F
$$

AZZ009>014-017-172200-
NORTHEAST ARIZONA

CITY           SKY/WX    TMP DP  RH WIND       PRES   REMARKS
WINSLOW        CLOUDY    75  61  61 E12       30.07F
SAINT JOHNS    CLOUDY    71  57  61 NE10      30.09F
SHOW LOW       LGT RAIN  61  57  88 E9        30.18S
$$

AZZ023-172200-
GREATER PHOENIX AREA

CITY           SKY/WX    TMP DP  RH WIND       PRES   REMARKS
PHOENIX        CLOUDY    81  68  64 NE5       29.78F
BUCKEYE          N/A     84  72  65 NE22G29   29.79S
GLENDALE       PTSUNNY   77  75  94 CALM      29.81S
LUKE AFB       DRIZZLE   78  72  83 W3        29.79F
DEER VALLEY    CLOUDY    83  67  58 SE14G20   29.80F
SCOTTSDALE     CLOUDY    78  69  73 E3        29.82F
MESA-GATEWAY   PTSUNNY   81  72  74 NW12      29.80F
CHANDLER       PTSUNNY   82  72  69 N14       29.79F
$$

AZZ027-028-172200-
SOUTHWEST MARICOPA COUNTY AND PINAL COUNTY

CITY           SKY/WX    TMP DP  RH WIND       PRES   REMARKS
CASA GRANDE    CLOUDY    84  66  54 E9        29.80F
GILA BEND      MOCLDY    90  66  45 E12G18    29.76F
$$

AZZ503-504-507>509-172200-
SOUTHEAST ARIZONA

CITY           SKY/WX    TMP DP  RH WIND       PRES   REMARKS
TUCSON         CLOUDY    81  67  62 E10       29.86F
DAVIS-MONTHAN  MOSUNNY   80  67  66 E7G16     29.84F
RYAN FIELD       N/A     81  70  69 E13       29.84F
NOGALES        LGT RAIN  67  64  90 SE7       29.91F
SIERRA VISTA   LGT RAIN  68  64  88 SE16G23   29.98F
DOUGLAS        LGT RAIN  69  66  90 S12       30.00F
SAFFORD        LGT RAIN  77  67  71 E3        29.92F
$$

AZZ020-021-025-026-031-172200-
SOUTHWEST ARIZONA

CITY           SKY/WX    TMP DP  RH WIND       PRES   REMARKS
YUMA           PTSUNNY  100  62  28 NE8       29.69F HX 101
$$

CAZ031-033-041-043-047-048-061-172200-
SOUTHERN CALIFORNIA

CITY           SKY/WX    TMP DP  RH WIND       PRES   REMARKS
DOWNTOWN L.A.  SUNNY     90  58  33 VRB5      29.73F
L.A. AIRPORT   MOSUNNY   81  58  45 W15       29.74F
SAN DIEGO      MOSUNNY   82  69  64 NW17      29.74F
BURBANK        SUNNY     95  57  27 S9        29.74F
ONTARIO        MOSUNNY   99  60  27 W16G24    29.74F
RIVERSIDE      SUNNY     99  60  27 W16G23    29.72F
PALM SPRINGS   MOSUNNY  101  62  27 E7        29.72F HX 102
EL CENTRO NAS  MOSUNNY   98  65  33 VRB5      29.68F HX 101
IMPERIAL       SUNNY     98  66  34 E8        29.68F HX 101
BLYTHE         MOSUNNY   95  65  37 N3        29.73F
NEEDLES        SUNNY     97  60  29 VRB3      29.76F
$$

NVZ020-UTZ003-172200-
SOUTHERN NEVADA-UTAH

CITY           SKY/WX    TMP DP  RH WIND       PRES   REMARKS
LAS VEGAS      MOSUNNY   94  58  29 VRB7      29.80F
SALT LAKE CITY MOSUNNY   93  37  14 VRB3      29.91F
$$

NMZ009-TXZ055-172200-
NEW MEXICO-WEST TEXAS

CITY           SKY/WX    TMP DP  RH WIND       PRES   REMARKS
ALBUQUERQUE    LGT RAIN  67  58  72 N7        30.16F
EL PASO        MOSUNNY   83  63  50 NE7       29.99F
$$


........................KEY........................
SKY/WX - SKY CONDITION/WEATHER
TMP    - TEMPERATURE IN FAHRENHEIT
DP     - DEW POINT IN FAHRENHEIT
RH     - RELATIVE HUMIDITY IN PERCENT
WIND   - DIRECTION AND SPEED IN MILES PER HOUR (MPH)
VRB    - VARIABLE WIND DIRECTION
PRES   - MEAN SEA LEVEL PRESSURE IN INCHES OF MERCURY
         F - FALLING PRESSURE   R - RISING PRESSURE
         S - STEADY PRESSURE
VSB    - VISIBILITY IN MILES
HX     - HEAT INDEX IN FAHRENHEIT
WCI    - WIND CHILL INDEX IN FAHRENHEIT
TC     - TEMPERATURE IN CELSIUS WHICH IS ALSO KNOWN AS
         TEMPERATURE IN CENTIGRADE
AFB    - AIR FORCE BASE
         LUKE AFB IS LUKE AIR FORCE BASE
         DAVIS-MONTHAN IS DAVIS-MONTHAN AIR FORCE BASE
NAS    - NAVAL AIR STATION
         EL CENTRO NAS IS EL CENTRO NAVAL AIR STATION
N/A    - NOT AVAILABLE


USA.gov is the U.S. government's official web portal to all federal, state and local government web resources and services.